Location: Sungai Jaoh
(2.9167°N, 113.9167°E)
Time: 15:43:08
(UTC+00:00)

BLOCK DM-SL R/B - Pass Details

Date: 30 November 2020
Orbit: 920 x 35734 km, 1.3° (Epoch: 26 January)

Event Time Altitude Azimuth Distance (km) Brightness Sun altitude
Rises 19:13:39 0° 270° (W) 16,918 9.4 -42.3°
Enters shadow 19:26:02 - 270° (W) 13,515 8.9 -39.6°
Exits shadow 19:57:04 54° 259° (W) 2,238 4.9 -32.6°
Maximum altitude 19:59:37 80° 183° (S) 1,543 4.3 -32.0°
Drops below altitude 10° 20:05:03 10° 96° (E) 2,742 6.7 -30.7°
Sets 20:06:52 0° 94° (E) 3,559 7.5 -30.3°
